Providence, RI

6:28 PM EDT on April 19, 2018 (GMT -0400)
Green State

Weather History for KPVD - September, 2013

Change the Weather History Date:

Friday, September 20, 2013

  Actual Average Record
Temperature  
Mean Temperature 63 °F 63 °F  
Max Temperature 77 °F 73 °F 93 °F (1983)
Min Temperature 49 °F 54 °F 38 °F (1979)
Degree Days  
Heating Degree Days 2 4  
Month to date heating degree days 48 37  
Since 1 July heating degree days 48 46  
Cooling Degree Days 0 2  
Month to date cooling degree days 63 68  
Year to date cooling degree days 885 724  
Growing Degree Days 12 (Base 50)    
Moisture  
Dew Point 54 °F    
Average Humidity 67    
Maximum Humidity 97    
Minimum Humidity 36    
Precipitation  
Precipitation 0.00 in 0.13 in 1.87 in (1960)
Month to date precipitation 4.32 2.57  
Year to date precipitation 35.13 33.17  
Snow  
Snow 0.00 in 0.00 in 0.00 in (2002)
Month to date snowfall 0.0 0.0  
Since 1 July snowfall 0.0 0.0  
Since 1 September snowfall 0.0 0.0  
Snow Depth 0.00 in    
Sea Level Pressure  
Sea Level Pressure 30.06 in    
Wind  
Wind Speed 5 mph (SSW)    
Max Wind Speed 15 mph    
Max Gust Speed 18 mph    
Visibility 9 miles    
Events Fog    
T = Trace of Precipitation, MM = Missing Value Source: NWS Daily Summary

Daily Weather History Graph

Daily Weather History Graph

Search for Another Location

Airport or City:

Astronomy

Sep. 20, 2013 Rise Set
Actual Time 6:31 AM EDT 6:46 PM EDT
Civil Twilight 6:03 AM EDT 7:13 PM EDT
Nautical Twilight 5:30 AM EDT 7:46 PM EDT
Astronomical Twilight 4:57 AM EDT 8:19 PM EDT
Moon 7:15 PM EDT (9/20) 7:44 AM EDT (9/20)
Length of Visible Light 13h 10m
Length of Day
12h 14m
Full, 98% of the Moon is Illuminated
Sep 20
Full
Sep 26
Last Quarter
Oct 4
New
Oct 11
First Quarter
Oct 18
Full

Hourly Weather History & Observations

Time (EDT) Temp. Dew Point Humidity Pressure Visibility Wind Dir Wind Speed Gust Speed Precip Events Conditions
12:51 AM 57.0 °F 53.1 °F 87% 30.07 in 10.0 mi West 4.6 mph - N/A   Clear
1:51 AM 54.0 °F 51.1 °F 90% 30.07 in 10.0 mi Calm Calm - N/A   Clear
2:51 AM 55.0 °F 53.1 °F 93% 30.07 in 10.0 mi Calm Calm - N/A   Clear
3:51 AM 53.1 °F 51.1 °F 93% 30.08 in 7.0 mi Calm Calm - N/A   Clear
4:51 AM 54.0 °F 52.0 °F 93% 30.08 in 7.0 mi Calm Calm - N/A   Clear
5:51 AM 50.0 °F 48.9 °F 96% 30.07 in 9.0 mi Calm Calm - N/A Fog Patches of Fog
6:51 AM 53.1 °F 52.0 °F 96% 30.08 in 10.0 mi SW 4.6 mph - N/A Fog Patches of Fog
7:51 AM 57.9 °F 53.1 °F 84% 30.10 in 10.0 mi North 4.6 mph - N/A   Partly Cloudy
8:51 AM 61.0 °F 55.0 °F 81% 30.09 in 10.0 mi Calm Calm - N/A   Partly Cloudy
9:51 AM 68.0 °F 55.0 °F 63% 30.09 in 10.0 mi SW 3.5 mph - N/A   Partly Cloudy
10:51 AM 73.0 °F 53.1 °F 49% 30.09 in 10.0 mi West 5.8 mph - N/A   Partly Cloudy
11:51 AM 75.0 °F 50.0 °F 41% 30.09 in 10.0 mi SSW 9.2 mph - N/A   Partly Cloudy
12:51 PM 77.0 °F 48.9 °F 37% 30.07 in 10.0 mi WSW 6.9 mph - N/A   Partly Cloudy
1:51 PM 75.9 °F 55.0 °F 48% 30.06 in 10.0 mi SSE 10.4 mph - N/A   Partly Cloudy
2:51 PM 75.0 °F 59.0 °F 57% 30.04 in 10.0 mi SSE 12.7 mph - N/A   Scattered Clouds
3:51 PM 73.9 °F 57.0 °F 55% 30.03 in 10.0 mi SSE 12.7 mph - N/A   Scattered Clouds
4:51 PM 73.9 °F 59.0 °F 59% 30.02 in 10.0 mi SSE 9.2 mph - N/A   Scattered Clouds
5:51 PM 72.0 °F 55.9 °F 57% 30.04 in 10.0 mi South 10.4 mph - N/A   Scattered Clouds
6:51 PM 64.9 °F 57.0 °F 75% 30.04 in 10.0 mi SSW 5.8 mph - N/A   Scattered Clouds
7:51 PM 62.1 °F 55.9 °F 80% 30.05 in 10.0 mi South 5.8 mph - N/A   Partly Cloudy
8:51 PM 59.0 °F 55.9 °F 90% 30.06 in 10.0 mi SSE 3.5 mph - N/A   Clear
9:51 PM 59.0 °F 57.0 °F 93% 30.06 in 7.0 mi Calm Calm - N/A   Partly Cloudy
9:59 PM 59.0 °F 55.4 °F 88% 30.05 in 7.0 mi Calm Calm - N/A   Partly Cloudy
10:51 PM 57.0 °F 55.0 °F 93% 30.05 in 7.0 mi Calm Calm - N/A Fog Patches of Fog
11:14 PM 57.2 °F 57.2 °F 100% 30.05 in 1.5 mi South 4.6 mph - N/A   Mostly Cloudy
11:23 PM 59.0 °F 57.2 °F 94% 30.05 in 0.5 mi SSW 3.5 mph - N/A Fog Fog
11:51 PM 60.1 °F 59.0 °F 96% 30.05 in 1.0 mi SSW 3.5 mph - N/A   Overcast